Location: Antoign�
(47.0844°N, 0.1131°W)
Time: 08:29:03
(UTC+00:00)

SL-4 R/B - Pass Details

Date: 03 March 2021
Orbit: 428 x 663 km, 51.6° (Epoch: 13 April)

Event Time Altitude Azimuth Distance (km) Brightness Sun altitude
Rises 19:49:39 0° 294° (WNW) 2,466 6.8 -21.2°
Reaches altitude 10° 19:51:50 10° 297° (WNW) 1,567 5.4 -21.6°
Enters shadow 19:54:49 58° 327° (NNW) 512 2.0 -22.1°
